SCP
0 0 0 0 0 0 0 0 0 0 0 0 0 0 0 0 0 0 0 0 0 0
0 0 0 0 0 0 0 0 0 0 0 0 0 0 0 0 0 0 0 0 0 0
0 0 0 0 0 0 0 0 0 0 0 0 0 0 0 0 0 0 0 0 0 0
0 0 0 0 0 0 0 0 0 0 0 0 0 0 0 0 0 0 0 0 0 0
0 0 0 0 0 0 0 0 0 0 0 0 0 0 0 0 0 0 0 0 0 0
0 0 0 0 0 0 0 0 0 0 0 0 0 0 0 0 0 0 0 0 0 0
0 0 0 0 0 0 0 0 0 0 0 0 0 0 0 0 0 0 0 0 0 0
0 0 0 0 0 0 0 0 0 0 0 0 0 0 0 0 0 0 0 0 0 0
0 0 0 0 0 0 0 0 0 0 0 0 0 0 0 0 0 0 0 0 0 0
0 0 0 0 0 0 0 0 0 0 0 0 0 0 0 0 0 0 0 0 0 0
0 0 0 0 0 0 0 0 0 0 0 0 0 0 0 0 0 0 0 0 0 0
0 0 0 0 0 0 0 0 0 0 0 0 0 0 0 0 0 0 0 0 0 0
0 0 0 0 0 0 0 0 0 0 0 0 0 0 0 0 0 0 0 0 0 0
0 0 0 0 0 0 0 0 0 0 0 0 0 0 0 0 0 0 0 0 0 0
Wind_Speed_500mb
103 101 101 101 103 104 110 111 107 102 98 93 90 86 79 75 71 65 61 59 55 50
95 95 96 95 95 97 99 103 107 103 100 98 95 88 81 78 71 66 64 60 55 51
77 82 87 88 90 91 92 94 99 102 104 101 96 90 85 80 72 70 66 62 58 53
54 66 75 80 82 85 84 87 91 93 103 103 100 97 93 85 78 74 69 65 60 54
37 46 63 70 73 75 78 79 81 84 91 102 104 100 96 88 82 77 76 71 62 55
27 31 40 53 64 64 65 68 73 78 84 91 102 103 97 90 86 83 77 71 63 57
18 24 30 34 41 51 55 60 65 68 72 80 87 96 97 94 90 86 78 71 65 59
8 9 17 27 31 36 45 50 54 59 65 71 77 84 93 96 92 87 80 75 69 62
2 7 11 18 25 29 35 43 51 55 59 65 67 71 79 89 93 89 82 78 72 66
27 10 6 10 17 24 32 39 45 48 52 56 58 60 66 74 85 87 83 77 74 70
50 43 26 8 9 21 27 33 37 41 44 46 47 52 58 64 71 77 78 77 74 70
54 54 51 42 24 12 6 25 35 40 43 44 44 46 51 56 62 65 69 71 72 69
54 50 50 47 45 36 25 14 8 22 35 43 47 49 50 52 55 57 60 65 69 69
46 48 51 46 41 38 36 28 21 9 7 20 32 42 49 51 54 57 60 63 65 68
Wind_Direction_500mb
228 227 230 231 230 229 228 225 223 220 218 218 218 218 216 218 219 218 219 220 221 223
229 229 231 233 235 236 235 232 228 222 220 219 219 218 217 218 218 217 218 219 220 222
236 234 236 237 237 238 237 236 233 227 224 223 220 219 218 218 217 219 218 217 219 221
239 238 238 238 239 240 241 238 237 233 228 225 222 219 218 216 216 218 218 219 219 221
233 237 235 237 239 241 241 240 240 237 232 228 225 222 220 218 217 218 218 218 219 221
201 210 229 235 237 238 239 239 239 236 234 232 227 225 222 221 220 220 219 220 221 224
198 213 220 223 233 236 237 238 237 238 237 235 233 228 225 223 222 222 221 221 224 227
136 170 202 217 218 220 232 236 239 238 237 236 235 232 227 225 225 224 222 223 225 228
251 196 193 204 211 211 216 228 235 236 238 239 239 237 233 230 228 227 226 226 226 229
40 28 250 221 212 210 214 220 227 234 239 240 240 240 238 234 232 231 230 229 230 231
42 43 37 26 237 228 221 220 224 227 232 238 239 240 239 236 235 234 233 234 235 234
35 38 37 36 35 37 260 233 232 231 230 229 230 234 237 237 236 234 234 235 235 234
25 28 30 28 31 32 42 28 256 232 230 232 229 226 227 233 237 237 233 231 232 233
9 11 15 19 20 24 29 39 46 41 226 228 230 227 226 227 231 235 237 237 235 233
Wind_Speed_850mb
103 101 101 101 103 104 110 111 107 102 98 93 90 86 79 75 71 65 61 59 55 50
95 95 96 95 95 97 99 103 107 103 100 98 95 88 81 78 71 66 64 60 55 51
77 82 87 88 90 91 92 94 99 102 104 101 96 90 85 80 72 70 66 62 58 53
54 66 75 80 82 85 84 87 91 93 103 103 100 97 93 85 78 74 69 65 60 54
37 46 63 70 73 75 78 79 81 84 91 102 104 100 96 88 82 77 76 71 62 55
27 31 40 53 64 64 65 68 73 78 84 91 102 103 97 90 86 83 77 71 63 57
18 24 30 34 41 51 55 60 65 68 72 80 87 96 97 94 90 86 78 71 65 59
8 9 17 27 31 36 45 50 54 59 65 71 77 84 93 96 92 87 80 75 69 62
2 7 11 18 25 29 35 43 51 55 59 65 67 71 79 89 93 89 82 78 72 66
27 10 6 10 17 24 32 39 45 48 52 56 58 60 66 74 85 87 83 77 74 70
50 43 26 8 9 21 27 33 37 41 44 46 47 52 58 64 71 77 78 77 74 70
54 54 51 42 24 12 6 25 35 40 43 44 44 46 51 56 62 65 69 71 72 69
54 50 50 47 45 36 25 14 8 22 35 43 47 49 50 52 55 57 60 65 69 69
46 48 51 46 41 38 36 28 21 9 7 20 32 42 49 51 54 57 60 63 65 68
Wind_Direction_850mb
228 227 230 231 230 229 228 225 223 220 218 218 218 218 216 218 219 218 219 220 221 223
229 229 231 233 235 236 235 232 228 222 220 219 219 218 217 218 218 217 218 219 220 222
236 234 236 237 237 238 237 236 233 227 224 223 220 219 218 218 217 219 218 217 219 221
239 238 238 238 239 240 241 238 237 233 228 225 222 219 218 216 216 218 218 219 219 221
233 237 235 237 239 241 241 240 240 237 232 228 225 222 220 218 217 218 218 218 219 221
201 210 229 235 237 238 239 239 239 236 234 232 227 225 222 221 220 220 219 220 221 224
198 213 220 223 233 236 237 238 237 238 237 235 233 228 225 223 222 222 221 221 224 227
136 170 202 217 218 220 232 236 239 238 237 236 235 232 227 225 225 224 222 223 225 228
251 196 193 204 211 211 216 228 235 236 238 239 239 237 233 230 228 227 226 226 226 229
40 28 250 221 212 210 214 220 227 234 239 240 240 240 238 234 232 231 230 229 230 231
42 43 37 26 237 228 221 220 224 227 232 238 239 240 239 236 235 234 233 234 235 234
35 38 37 36 35 37 260 233 232 231 230 229 230 234 237 237 236 234 234 235 235 234
25 28 30 28 31 32 42 28 256 232 230 232 229 226 227 233 237 237 233 231 232 233
9 11 15 19 20 24 29 39 46 41 226 228 230 227 226 227 231 235 237 237 235 233